Home > Weather > Nizwa > Past weeks

Flag for Oman Past Weather in Nizwa, Oman — Yesterday and Last 2 Weeks

Now
84 °F

Clear.


Feels Like: 92 °F
Forecast: 73 / 100 °F
Wind: 3 mph from Northeast

Location: International Airport

Current Time: Jul 28, 2016 at 3:15:41 AM

Latest Report: Jul 28, 2016 at 1:50 AM


Visibility: 6 mi

Pressure: 29.53 "Hg (27.84 "Hg at 522m altitude)

Humidity: 74%

Dew Point: 75 °F

Location of NizwaLocation

Past Weather in Nizwa — Graph

°F

Nizwa Temperature Yesterday

Maximum temperature yesterday: 88 °F (at 9:50 AM)
Minimum temperature yesterday: 81 °F (at 5:50 AM)
Average temperature yesterday: 84 °F

High & Low Weather Summary for the Past Weeks

 TemperatureHumidityPressure
High108 °F (Jul 22, 11:50 PM)94% (Jul 21, 1:50 AM)29.62 "Hg (Jul 21, 1:50 AM)
Low81 °F (Jul 27, 5:50 AM)17% (Jul 22, 11:50 PM)29.36 "Hg (Jul 22, 10:50 PM)
Average91 °F73%29.48 "Hg
* Reported Jul 13 1:50 AM — Jul 28 1:50 AM, Nizwa, Weather by CustomWeather, © 2016

Note: Actual official high and low records may vary slightly from our data, if they occured in-between our weather recording intervals... More about our weather records

Advertising

Nizwa Weather History for the Previous 24 Hours

Scroll right to see more
 ConditionsComfort  
Time TempWeatherWind HumidityBarometerVisibility
1:50 AM
Thu, Jul 28
84 °FClear.3 mph74%29.53 "Hg6 mi
12:50 AM82 °FClear.5 mph84%29.56 "Hg6 mi
11:50 PM
Wed, Jul 27
82 °FClear.2 mph79%29.56 "Hg6 mi
10:50 PM82 °FClear.No wind79%29.56 "Hg6 mi
9:50 PM82 °FClear.3 mph79%29.53 "Hg6 mi
8:50 PM82 °FClear.No wind79%29.53 "Hg6 mi
7:50 PM81 °FClear.13 mph84%29.50 "Hg6 mi
6:50 PM82 °FClear.13 mph79%29.50 "Hg6 mi
5:50 PM82 °FClear.17 mph79%29.50 "Hg6 mi
4:50 PM84 °FClear.17 mph74%29.50 "Hg6 mi
3:50 PM86 °FScattered clouds.21 mph70%29.50 "HgN/A
2:50 PM86 °FPassing clouds.22 mph75%29.50 "HgN/A
1:50 PM86 °FPassing clouds.23 mph70%29.53 "HgN/A
12:50 PM86 °FPassing clouds.22 mph70%29.53 "HgN/A
11:50 AM86 °FPassing clouds.20 mph70%29.56 "HgN/A
10:50 AM86 °FPassing clouds.20 mph75%29.56 "HgN/A
9:50 AM88 °FSunny.3 mph66%29.56 "Hg10 mi
8:50 AM86 °FSunny.6 mph70%29.56 "Hg10 mi
7:50 AM86 °FClear.7 mph75%29.56 "Hg6 mi
6:50 AM84 °FClear.2 mph79%29.56 "Hg5 mi
5:50 AM81 °FClear.3 mph89%29.53 "Hg5 mi
4:50 AM82 °FClear.5 mph84%29.53 "Hg5 mi
3:50 AM82 °FClear.2 mph84%29.50 "Hg5 mi
Weather by CustomWeather, © 2016

See weather overviewHow to use our weather pages